This demonstration page uses our WeatherBlox Daily Observations layout. Learn more.

Left ArrowRight Arrow

Hourly Observations for June 22, 2015

Temp ( °F °C ) Dew Point ( °F °C ) Humidity (%) Winds ( mph kmh ) Pressure ( in mb ) Visibility ( mi km ) Precip ( " mm )
12:59 am 00:59 Clear 83 28.3 71 21.7 67 67 WSW 5 7 29.93 1014 9 14 0.00 0.00
1:59 am 01:59 Mostly Clear 77 25.2 74 23.4 90 90 WSW 9 15 30.11 1020 9 14 0.00 0.00
2:59 am 02:59 Partly Cloudy 69 20.6 61 16.1 76 76 W 12 19 29.94 1014 10 16 0.00 0.00
3:59 am 03:59 Mostly Clear 80 26.7 68 20 67 67 W 8 13 29.96 1015 10 16 0.00 0.00
4:59 am 04:59 Mostly Cloudy 79 26.1 69 20.6 72 72 W 8 13 29.98 1015 10 16 0.00 0.00
5:59 am 05:59 Partly Cloudy 78 25.6 70 21.1 76 76 W 3 6 30.00 1016 9 14 0.00 0.00
6:59 am 06:59 Partly Cloudy 80 26.7 71 21.7 74 74 WNW 7 11 30.02 1017 9 14 0.00 0.00
7:59 am 07:59 Partly Cloudy 82 27.8 71 21.7 69 69 NNW 8 13 30.03 1017 9 14 0.00 0.00
8:59 am 08:59 Mostly Cloudy 83 28.3 70 21.1 65 65 NNE 8 13 30.05 1018 9 14 0.00 0.00
9:59 am 09:59 Partly Cloudy 85 29.4 71 21.7 63 63 NNE 8 13 30.06 1018 9 14 0.00 0.00
10:59 am 10:59 Partly Cloudy 87 30.6 69 20.6 55 55 NNE 9 15 30.07 1018 10 16 0.00 0.00
11:59 am 11:59 Partly Cloudy 88 31.1 69 20.6 54 54 NNE 9 15 30.07 1018 10 16 0.00 0.00
12:59 pm 12:59 Mostly Sunny 87 30.6 68 20 53 53 E 8 13 30.06 1018 10 16 0.00 0.00
1:59 pm 13:59 Mostly Sunny 88 31.1 68 20 52 52 ENE 8 13 30.05 1018 10 16 0.00 0.00
2:59 pm 14:59 Mostly Sunny 91 32.8 69 20.6 49 49 NNW 8 13 30.04 1017 10 16 0.00 0.00
3:59 pm 15:59 Mostly Sunny 90 32.2 69 20.6 50 50 ENE 10 17 30.06 1018 10 16 0.00 0.00
4:59 pm 16:59 Partly Cloudy 88 31.1 71 21.7 57 57 ENE 9 15 30.06 1018 10 16 0.00 0.00
5:59 pm 17:59 Partly Cloudy 86 30 69 20.6 57 57 E 8 13 30.04 1017 9 14 0.00 0.00
6:59 pm 18:59 Partly Cloudy 87 30.6 70 21.1 57 57 VRB 6 9 30.03 1017 9 14 0.00 0.00
7:59 pm 19:59 Mostly Cloudy 85 29.4 69 20.6 59 59 SSE 6 9 30.04 1017 9 14 0.00 0.00
8:59 pm 20:59 Mostly Cloudy 82 27.8 69 20.6 65 65 SSE 8 13 30.04 1017 10 16 0.00 0.00
9:59 pm 21:59 Mostly Clear 82 27.8 69 20.6 65 65 S 7 11 30.06 1018 10 16 0.00 0.00
10:59 pm 22:59 Mostly Clear 81 27.2 69 20.6 67 67 S 5 7 30.07 1018 10 16 0.00 0.00
11:59 pm 23:59 Partly Cloudy 81 27.2 70 21.1 69 69 S 7 11 30.06 1018 10 16 0.00 0.00

Powered by AerisWeather